VIR388 EINN-BIKF

Flight info

Callsign VIR388
Flight time 2h 8m
Altitude 31000
Route ERABI3B ERABI DCT OSBOX DCT AGORI/M079F400 DCT 61N017W DCT BREKI DCT BASLU BASLU4N
Aircraft A343/H-SDE2E3FGHIJ4J5M1RWXY/LB1D1

Departure

Time 2026-05-07 19:52
Airport Shannon Airport (EINN)

Arrival

Time 2026-05-07 22:00
Airport Keflavik International Airport (BIKF)
Time Latitude Longitude Altitude Speed Heading
2026-05-07 19:52 52.85514 -9.30843 2716 ft 319 kts 314°
2026-05-07 19:52 52.87125 -9.33419 2983 ft 324 kts 314°
2026-05-07 19:52 52.88684 -9.35924 3093 ft 300 kts 315°
2026-05-07 19:53 52.90134 -9.38257 3098 ft 280 kts 315°
2026-05-07 19:53 52.91478 -9.40433 3126 ft 260 kts 314°
2026-05-07 19:53 52.92718 -9.42455 3538 ft 245 kts 314°
2026-05-07 19:53 52.93957 -9.44476 4100 ft 254 kts 313°
2026-05-07 19:54 52.95232 -9.46552 5160 ft 258 kts 313°
2026-05-07 19:54 52.96522 -9.48652 6227 ft 262 kts 313°
2026-05-07 19:54 52.97820 -9.50768 7184 ft 268 kts 313°
2026-05-07 19:54 52.99161 -9.52955 8166 ft 272 kts 313°
2026-05-07 19:55 53.00545 -9.55143 9117 ft 277 kts 316°
2026-05-07 19:55 53.02106 -9.57076 10059 ft 284 kts 325°
2026-05-07 19:55 53.03880 -9.58738 10604 ft 303 kts 329°
2026-05-07 19:55 53.05837 -9.60349 10977 ft 323 kts 332°
2026-05-07 19:56 53.07922 -9.61937 11595 ft 334 kts 333°
2026-05-07 19:56 53.10068 -9.63526 12351 ft 340 kts 333°
2026-05-07 19:56 53.12243 -9.65137 13151 ft 345 kts 333°
2026-05-07 19:56 53.14441 -9.66783 13948 ft 349 kts 332°
2026-05-07 19:57 53.16666 -9.68474 14677 ft 353 kts 332°
2026-05-07 19:57 53.18907 -9.70195 15420 ft 357 kts 332°
2026-05-07 19:57 53.21172 -9.71947 16165 ft 360 kts 331°
2026-05-07 19:57 53.23456 -9.73723 16899 ft 364 kts 331°
2026-05-07 19:58 53.25770 -9.75525 17646 ft 368 kts 331°
2026-05-07 19:58 53.28102 -9.77344 18360 ft 372 kts 331°
2026-05-07 19:58 53.30441 -9.79171 18864 ft 380 kts 331°
2026-05-07 19:58 53.32886 -9.81085 19157 ft 395 kts 331°
2026-05-07 19:59 53.35413 -9.83066 19607 ft 404 kts 331°
2026-05-07 19:59 53.37976 -9.85070 20164 ft 409 kts 331°
2026-05-07 19:59 53.40575 -9.87104 20702 ft 414 kts 331°
2026-05-07 19:59 53.43200 -9.89159 21288 ft 419 kts 331°
2026-05-07 20:00 53.45857 -9.91243 21853 ft 423 kts 331°
2026-05-07 20:00 53.48537 -9.93349 22410 ft 428 kts 331°
2026-05-07 20:00 53.51247 -9.95484 22926 ft 432 kts 331°
2026-05-07 20:00 53.53978 -9.97637 23481 ft 436 kts 331°
2026-05-07 20:01 53.56741 -9.99820 23919 ft 440 kts 331°
2026-05-07 20:01 53.59529 -10.02024 24416 ft 442 kts 330°
2026-05-07 20:01 53.62317 -10.04232 24878 ft 445 kts 330°
2026-05-07 20:01 53.65129 -10.06463 25297 ft 448 kts 330°
2026-05-07 20:02 53.67924 -10.08684 25712 ft 451 kts 330°
2026-05-07 20:02 53.70772 -10.10951 26121 ft 454 kts 330°
2026-05-07 20:02 53.73645 -10.13240 26538 ft 457 kts 330°
2026-05-07 20:02 53.76532 -10.15545 26944 ft 460 kts 330°
2026-05-07 20:03 53.79437 -10.17867 27339 ft 463 kts 330°
2026-05-07 20:03 53.82362 -10.20209 27763 ft 466 kts 329°
2026-05-07 20:03 53.85296 -10.22563 28136 ft 468 kts 329°
2026-05-07 20:03 53.88249 -10.24935 28494 ft 471 kts 329°
2026-05-07 20:04 53.91222 -10.27327 28849 ft 474 kts 329°
2026-05-07 20:04 53.94215 -10.29739 29229 ft 476 kts 329°
2026-05-07 20:04 53.97199 -10.32145 29750 ft 475 kts 329°
2026-05-07 20:04 54.00178 -10.34549 30220 ft 474 kts 329°
2026-05-07 20:05 54.03170 -10.36968 30633 ft 473 kts 329°
2026-05-07 20:05 54.06110 -10.39351 30937 ft 475 kts 329°
2026-05-07 20:05 54.12077 -10.44202 30958 ft 474 kts 329°
2026-05-07 20:06 54.18024 -10.49051 30964 ft 474 kts 329°
2026-05-07 20:06 54.23974 -10.53920 30963 ft 474 kts 329°
2026-05-07 20:07 54.29918 -10.58799 30977 ft 474 kts 328°
2026-05-07 20:07 54.35861 -10.63692 30965 ft 474 kts 328°
2026-05-07 20:08 54.41806 -10.68603 30955 ft 474 kts 328°
2026-05-07 20:08 54.47714 -10.73499 30960 ft 474 kts 328°
2026-05-07 20:09 54.53661 -10.78445 30987 ft 479 kts 328°
2026-05-07 20:10 54.62877 -10.86158 30958 ft 494 kts 328°
2026-05-07 20:10 54.69052 -10.91321 30952 ft 492 kts 328°
2026-05-07 20:11 54.74175 -10.95623 30951 ft 492 kts 328°
2026-05-07 20:11 54.81334 -11.01663 30948 ft 493 kts 328°
2026-05-07 20:12 54.87506 -11.06892 30949 ft 493 kts 328°
2026-05-07 20:12 54.92640 -11.11254 30949 ft 493 kts 328°
2026-05-07 20:13 54.98799 -11.16504 30952 ft 493 kts 328°
2026-05-07 20:13 55.04966 -11.21777 30948 ft 494 kts 328°
2026-05-07 20:14 55.11137 -11.27074 30941 ft 494 kts 328°
2026-05-07 20:14 55.17309 -11.32388 30941 ft 494 kts 328°
2026-05-07 20:15 55.23470 -11.37713 30941 ft 494 kts 328°
2026-05-07 20:15 55.29632 -11.43057 30936 ft 494 kts 327°
2026-05-07 20:16 55.35795 -11.48422 30930 ft 494 kts 327°
2026-05-07 20:16 55.41917 -11.53768 30930 ft 494 kts 327°
2026-05-07 20:17 55.48110 -11.59195 30927 ft 494 kts 327°
2026-05-07 20:17 55.54231 -11.64578 30925 ft 494 kts 327°
2026-05-07 20:18 55.60384 -11.70008 30923 ft 494 kts 327°
2026-05-07 20:18 55.66541 -11.75461 30925 ft 494 kts 327°
2026-05-07 20:19 55.72695 -11.80931 30926 ft 494 kts 327°
2026-05-07 20:19 55.78841 -11.86412 30920 ft 494 kts 327°
2026-05-07 20:20 55.84941 -11.91872 30910 ft 494 kts 327°
2026-05-07 20:20 55.91077 -11.97384 30915 ft 494 kts 327°
2026-05-07 20:21 55.97209 -12.02912 30905 ft 494 kts 327°
2026-05-07 20:21 56.03361 -12.08478 30911 ft 494 kts 327°
2026-05-07 20:22 56.09495 -12.14048 30906 ft 494 kts 327°
2026-05-07 20:22 56.15629 -12.19637 30898 ft 494 kts 327°
2026-05-07 20:23 56.21758 -12.25242 30901 ft 494 kts 327°
2026-05-07 20:23 56.27884 -12.30865 30882 ft 495 kts 327°
2026-05-07 20:24 56.33985 -12.36485 30892 ft 495 kts 327°
2026-05-07 20:24 56.40113 -12.42150 30872 ft 495 kts 327°
2026-05-07 20:25 56.46247 -12.47842 30884 ft 495 kts 326°
2026-05-07 20:25 56.52372 -12.53545 30881 ft 494 kts 327°
2026-05-07 20:26 56.58481 -12.59254 30871 ft 494 kts 327°
2026-05-07 20:26 56.64578 -12.64975 30870 ft 494 kts 327°
2026-05-07 20:27 56.70646 -12.70688 30872 ft 494 kts 327°
2026-05-07 20:27 56.76779 -12.76484 30863 ft 492 kts 327°
2026-05-07 20:28 56.82840 -12.82257 30860 ft 490 kts 326°
2026-05-07 20:28 56.88768 -12.88288 30851 ft 489 kts 325°
2026-05-07 20:29 56.94693 -12.94461 30847 ft 489 kts 324°
2026-05-07 20:29 57.00618 -13.00610 30854 ft 489 kts 325°
2026-05-07 20:30 57.06722 -13.06259 30836 ft 493 kts 329°
2026-05-07 20:30 57.12910 -13.11524 30836 ft 493 kts 330°
2026-05-07 20:31 57.19119 -13.16870 30850 ft 490 kts 330°
2026-05-07 20:31 57.25271 -13.22305 30843 ft 490 kts 329°
2026-05-07 20:32 57.31393 -13.27781 30832 ft 488 kts 329°
2026-05-07 20:32 57.37513 -13.33274 30838 ft 488 kts 329°
2026-05-07 20:33 57.43593 -13.38747 30832 ft 488 kts 329°
2026-05-07 20:33 57.49702 -13.44267 30838 ft 488 kts 329°
2026-05-07 20:34 57.55796 -13.49801 30810 ft 485 kts 329°
2026-05-07 20:34 57.61865 -13.55325 30810 ft 485 kts 329°
2026-05-07 20:35 57.67931 -13.60865 30801 ft 485 kts 329°
2026-05-07 20:35 57.73996 -13.66410 30817 ft 485 kts 329°
2026-05-07 20:36 57.80045 -13.71968 30819 ft 483 kts 329°
2026-05-07 20:36 57.86028 -13.77493 30815 ft 481 kts 329°
2026-05-07 20:37 57.92040 -13.83082 30820 ft 482 kts 329°
2026-05-07 20:37 57.98063 -13.88693 30812 ft 482 kts 330°
2026-05-07 20:38 58.04075 -13.94300 30813 ft 482 kts 329°
2026-05-07 20:38 58.10078 -13.99936 30809 ft 482 kts 329°
2026-05-07 20:39 58.16086 -14.05585 30809 ft 481 kts 329°
2026-05-07 20:39 58.22053 -14.11216 30809 ft 482 kts 328°
2026-05-07 20:40 58.28043 -14.16892 30809 ft 480 kts 329°
2026-05-07 20:40 58.33992 -14.22565 30807 ft 477 kts 329°
2026-05-07 20:41 58.39934 -14.28250 30808 ft 477 kts 328°
2026-05-07 20:41 58.45867 -14.33943 30829 ft 476 kts 328°
2026-05-07 20:42 58.51803 -14.39655 30849 ft 477 kts 329°
2026-05-07 20:42 58.57702 -14.45353 30835 ft 473 kts 330°
2026-05-07 20:43 58.63587 -14.51038 30838 ft 473 kts 328°
2026-05-07 20:43 58.69421 -14.56717 30842 ft 474 kts 328°
2026-05-07 20:44 58.75305 -14.62467 30839 ft 472 kts 329°
2026-05-07 20:44 58.81168 -14.68225 30851 ft 473 kts 330°
2026-05-07 20:45 58.87007 -14.73963 30851 ft 470 kts 331°
2026-05-07 20:45 58.92857 -14.79738 30837 ft 471 kts 330°
2026-05-07 20:46 58.98644 -14.85480 30856 ft 471 kts 330°
2026-05-07 20:46 59.04477 -14.91291 30849 ft 469 kts 331°
2026-05-07 20:47 59.10275 -14.97089 30854 ft 468 kts 331°
2026-05-07 20:47 59.16049 -15.02884 30877 ft 466 kts 331°
2026-05-07 20:48 59.21826 -15.08712 30881 ft 468 kts 330°
2026-05-07 20:48 59.27600 -15.14549 30883 ft 466 kts 331°
2026-05-07 20:49 59.33328 -15.20359 30888 ft 463 kts 330°
2026-05-07 20:49 59.39056 -15.26194 30891 ft 464 kts 330°
2026-05-07 20:50 59.44773 -15.32039 30900 ft 462 kts 331°
2026-05-07 20:50 59.50504 -15.37929 30904 ft 466 kts 330°
2026-05-07 20:51 59.56235 -15.43840 30912 ft 464 kts 331°
2026-05-07 20:51 59.61927 -15.49732 30912 ft 464 kts 331°
2026-05-07 20:52 59.67633 -15.55657 30912 ft 464 kts 332°
2026-05-07 20:52 59.73364 -15.61632 30918 ft 463 kts 332°
2026-05-07 20:53 59.79069 -15.67605 30920 ft 466 kts 332°
2026-05-07 20:53 59.84749 -15.73578 30948 ft 463 kts 332°
2026-05-07 20:54 59.90452 -15.79595 30944 ft 465 kts 331°
2026-05-07 20:54 59.96143 -15.85624 30950 ft 463 kts 331°
2026-05-07 20:55 60.01844 -15.91686 30952 ft 464 kts 331°
2026-05-07 20:55 60.07522 -15.97748 30959 ft 464 kts 331°
2026-05-07 20:56 60.13224 -16.03862 30966 ft 463 kts 331°
2026-05-07 20:56 60.18908 -16.09980 30968 ft 465 kts 331°
2026-05-07 20:57 60.24554 -16.16080 30974 ft 461 kts 331°
2026-05-07 20:57 60.30219 -16.22226 30972 ft 464 kts 331°
2026-05-07 20:58 60.35884 -16.28396 30993 ft 463 kts 331°
2026-05-07 20:58 60.40605 -16.33556 30988 ft 463 kts 331°
2026-05-07 20:59 60.46256 -16.39754 30996 ft 462 kts 331°
2026-05-07 20:59 60.51903 -16.45972 31008 ft 458 kts 331°
2026-05-07 21:00 60.57498 -16.52160 31020 ft 459 kts 331°
2026-05-07 21:00 60.63100 -16.58380 31020 ft 456 kts 331°
2026-05-07 21:01 60.68695 -16.64617 31025 ft 460 kts 331°
2026-05-07 21:01 60.74301 -16.70891 31024 ft 458 kts 331°
2026-05-07 21:02 60.79867 -16.77145 31024 ft 460 kts 331°
2026-05-07 21:02 60.85440 -16.83431 31025 ft 457 kts 331°
2026-05-07 21:03 60.91025 -16.89758 31029 ft 458 kts 331°
2026-05-07 21:03 60.96587 -16.96084 31033 ft 459 kts 331°
2026-05-07 21:04 61.01976 -17.03145 31044 ft 457 kts 324°
2026-05-07 21:04 61.07100 -17.10952 31040 ft 460 kts 323°
2026-05-07 21:05 61.12208 -17.18955 31057 ft 458 kts 323°
2026-05-07 21:05 61.17227 -17.26872 31059 ft 457 kts 323°
2026-05-07 21:06 61.22316 -17.34907 31070 ft 459 kts 323°
2026-05-07 21:06 61.27369 -17.42909 31070 ft 456 kts 323°
2026-05-07 21:07 61.32445 -17.50975 31074 ft 461 kts 323°
2026-05-07 21:07 61.37497 -17.59038 30790 ft 450 kts 323°
2026-05-07 21:07 61.39933 -17.62939 30175 ft 446 kts 323°
2026-05-07 21:08 61.42393 -17.66890 29214 ft 446 kts 323°
2026-05-07 21:08 61.44839 -17.70821 28610 ft 440 kts 323°
2026-05-07 21:08 61.47242 -17.74694 28155 ft 430 kts 323°
2026-05-07 21:08 61.49581 -17.78471 27613 ft 422 kts 323°
2026-05-07 21:09 61.51912 -17.82241 26740 ft 423 kts 323°
2026-05-07 21:09 61.54234 -17.86003 26078 ft 419 kts 323°
2026-05-07 21:09 61.56527 -17.89728 25528 ft 413 kts 323°
2026-05-07 21:09 61.58780 -17.93399 25062 ft 405 kts 324°
2026-05-07 21:10 61.60979 -17.96984 24588 ft 397 kts 323°
2026-05-07 21:10 61.63176 -18.00571 23813 ft 399 kts 323°
2026-05-07 21:10 61.65363 -18.04145 23052 ft 398 kts 323°
2026-05-07 21:10 61.67541 -18.07713 22403 ft 393 kts 323°
2026-05-07 21:11 61.69650 -18.11177 21843 ft 387 kts 323°
2026-05-07 21:11 61.71758 -18.14645 21283 ft 381 kts 323°
2026-05-07 21:11 61.75914 -18.21496 19945 ft 376 kts 323°
2026-05-07 21:12 61.77972 -18.24897 19313 ft 374 kts 323°
2026-05-07 21:12 61.80000 -18.28258 18792 ft 368 kts 323°
2026-05-07 21:12 61.82002 -18.31581 18255 ft 363 kts 323°
2026-05-07 21:12 61.83982 -18.34873 17548 ft 361 kts 323°
2026-05-07 21:13 61.85948 -18.38147 17183 ft 359 kts 323°
2026-05-07 21:13 61.87918 -18.41430 17118 ft 361 kts 323°
2026-05-07 21:13 61.89888 -18.44719 17136 ft 360 kts 323°
2026-05-07 21:13 61.91858 -18.48015 17140 ft 361 kts 323°
2026-05-07 21:14 61.93834 -18.51325 17140 ft 362 kts 323°
2026-05-07 21:14 61.95811 -18.54643 17137 ft 362 kts 323°
2026-05-07 21:14 61.97787 -18.57966 17137 ft 363 kts 323°
2026-05-07 21:14 61.99766 -18.61301 17140 ft 362 kts 323°
2026-05-07 21:15 62.01718 -18.64594 17140 ft 362 kts 323°
2026-05-07 21:15 62.03691 -18.67931 17137 ft 362 kts 323°
2026-05-07 21:15 62.05665 -18.71272 17142 ft 362 kts 323°
2026-05-07 21:15 62.07644 -18.74628 17140 ft 362 kts 323°
2026-05-07 21:16 62.09618 -18.77982 17144 ft 363 kts 323°
2026-05-07 21:16 62.11589 -18.81337 17145 ft 362 kts 323°
2026-05-07 21:16 62.13558 -18.84693 17152 ft 362 kts 323°
2026-05-07 21:16 62.15527 -18.88055 17151 ft 362 kts 323°
2026-05-07 21:17 62.17499 -18.91430 17153 ft 363 kts 323°
2026-05-07 21:17 62.19477 -18.94818 17156 ft 364 kts 323°
2026-05-07 21:17 62.21455 -18.98214 17152 ft 364 kts 323°
2026-05-07 21:17 62.23411 -19.01577 17153 ft 364 kts 323°
2026-05-07 21:18 62.25387 -19.04981 17153 ft 364 kts 323°
2026-05-07 21:18 62.27370 -19.08402 17156 ft 364 kts 323°
2026-05-07 21:18 62.29340 -19.11808 17156 ft 364 kts 323°
2026-05-07 21:18 62.31312 -19.15221 17159 ft 364 kts 322°
2026-05-07 21:19 62.33287 -19.18647 17160 ft 364 kts 322°
2026-05-07 21:19 62.35256 -19.22067 17158 ft 364 kts 322°
2026-05-07 21:19 62.37226 -19.25497 17155 ft 364 kts 322°
2026-05-07 21:19 62.39172 -19.28890 17154 ft 364 kts 322°
2026-05-07 21:20 62.41137 -19.32322 17159 ft 364 kts 322°
2026-05-07 21:20 62.43109 -19.35772 17159 ft 365 kts 322°
2026-05-07 21:20 62.45079 -19.39224 17159 ft 365 kts 322°
2026-05-07 21:20 62.47047 -19.42679 17145 ft 365 kts 322°
2026-05-07 21:21 62.49020 -19.46148 17158 ft 365 kts 322°
2026-05-07 21:21 62.50991 -19.49622 17165 ft 365 kts 322°
2026-05-07 21:21 62.52923 -19.53191 17165 ft 366 kts 319°
2026-05-07 21:21 62.54708 -19.57131 17165 ft 367 kts 315°
2026-05-07 21:22 62.56419 -19.61238 17165 ft 367 kts 313°
2026-05-07 21:22 62.58094 -19.65425 17165 ft 367 kts 313°
2026-05-07 21:22 62.59746 -19.69658 17165 ft 367 kts 312°
2026-05-07 21:22 62.61391 -19.73920 17165 ft 367 kts 312°
2026-05-07 21:23 62.63031 -19.78186 17165 ft 367 kts 312°
2026-05-07 21:23 62.64647 -19.82390 17163 ft 367 kts 312°
2026-05-07 21:23 62.66290 -19.86661 17165 ft 368 kts 312°
2026-05-07 21:23 62.67934 -19.90934 17165 ft 368 kts 312°
2026-05-07 21:24 62.69581 -19.95217 17173 ft 368 kts 312°
2026-05-07 21:24 62.71228 -19.99501 17173 ft 368 kts 312°
2026-05-07 21:24 62.72870 -20.03782 17173 ft 368 kts 312°
2026-05-07 21:24 62.74512 -20.08072 17173 ft 368 kts 312°
2026-05-07 21:25 62.76156 -20.12374 17169 ft 368 kts 312°
2026-05-07 21:25 62.77773 -20.16613 17170 ft 368 kts 312°
2026-05-07 21:25 62.79414 -20.20924 17170 ft 368 kts 311°
2026-05-07 21:25 62.81054 -20.25243 17171 ft 368 kts 311°
2026-05-07 21:26 62.82687 -20.29550 17170 ft 368 kts 311°
2026-05-07 21:26 62.84325 -20.33880 17171 ft 368 kts 311°
2026-05-07 21:26 62.85959 -20.38207 17171 ft 368 kts 311°
2026-05-07 21:26 62.87594 -20.42543 17178 ft 368 kts 311°
2026-05-07 21:27 62.89221 -20.46868 17174 ft 368 kts 311°
2026-05-07 21:27 62.90833 -20.51160 17183 ft 368 kts 311°
2026-05-07 21:27 62.92462 -20.55507 17180 ft 368 kts 311°
2026-05-07 21:27 62.94089 -20.59857 16977 ft 366 kts 311°
2026-05-07 21:28 62.95706 -20.64189 16134 ft 368 kts 311°
2026-05-07 21:28 62.97336 -20.68560 15294 ft 370 kts 311°
2026-05-07 21:28 62.98965 -20.72939 14590 ft 368 kts 311°
2026-05-07 21:28 63.00578 -20.77286 13949 ft 365 kts 311°
2026-05-07 21:29 63.02177 -20.81607 13381 ft 362 kts 311°
2026-05-07 21:29 63.03765 -20.85903 13185 ft 362 kts 311°
2026-05-07 21:29 63.05357 -20.90216 13193 ft 362 kts 311°
2026-05-07 21:29 63.06943 -20.94522 13198 ft 361 kts 311°
2026-05-07 21:30 63.08526 -20.98826 13197 ft 361 kts 311°
2026-05-07 21:30 63.10087 -21.03081 13200 ft 361 kts 311°
2026-05-07 21:30 63.11667 -21.07394 13201 ft 361 kts 311°
2026-05-07 21:30 63.13246 -21.11712 13199 ft 361 kts 311°
2026-05-07 21:31 63.14836 -21.16015 13198 ft 361 kts 313°
2026-05-07 21:31 63.16644 -21.19847 13205 ft 359 kts 323°
2026-05-07 21:31 63.18739 -21.22818 13205 ft 357 kts 334°
2026-05-07 21:31 63.21062 -21.24724 13199 ft 356 kts 346°
2026-05-07 21:32 63.23480 -21.25884 13205 ft 356 kts 344°
2026-05-07 21:32 63.25844 -21.27556 13205 ft 357 kts 342°
2026-05-07 21:32 63.28195 -21.29300 13202 ft 356 kts 342°
2026-05-07 21:32 63.30558 -21.31052 13202 ft 357 kts 342°
2026-05-07 21:33 63.32913 -21.32790 13202 ft 357 kts 342°
2026-05-07 21:33 63.35240 -21.34501 13205 ft 357 kts 342°
2026-05-07 21:33 63.37596 -21.36233 13206 ft 357 kts 342°
2026-05-07 21:33 63.39959 -21.37969 13201 ft 358 kts 342°
2026-05-07 21:34 63.42325 -21.39710 13203 ft 358 kts 342°
2026-05-07 21:34 63.44698 -21.41457 13208 ft 358 kts 342°
2026-05-07 21:34 63.47069 -21.43206 13206 ft 358 kts 342°
2026-05-07 21:34 63.49436 -21.44955 13204 ft 358 kts 342°
2026-05-07 21:35 63.51810 -21.46712 13211 ft 358 kts 342°
2026-05-07 21:35 63.54182 -21.48471 13215 ft 358 kts 342°
2026-05-07 21:35 63.56549 -21.50229 13216 ft 359 kts 342°
2026-05-07 21:35 63.58815 -21.52383 13178 ft 357 kts 333°
2026-05-07 21:36 63.60836 -21.55531 12585 ft 353 kts 319°
2026-05-07 21:36 63.62362 -21.59877 11825 ft 358 kts 301°
2026-05-07 21:36 63.63432 -21.64945 11163 ft 357 kts 296°
2026-05-07 21:36 63.64390 -21.70078 10516 ft 355 kts 295°
2026-05-07 21:37 63.65327 -21.75191 9856 ft 352 kts 295°
2026-05-07 21:37 63.66257 -21.80252 9179 ft 347 kts 295°
2026-05-07 21:37 63.67185 -21.85280 8451 ft 345 kts 295°
2026-05-07 21:37 63.68098 -21.90267 7735 ft 343 kts 294°
2026-05-07 21:38 63.69002 -21.95215 7072 ft 340 kts 294°
2026-05-07 21:38 63.69897 -22.00118 6391 ft 337 kts 294°
2026-05-07 21:38 63.70773 -22.04928 5667 ft 334 kts 294°
2026-05-07 21:38 63.71640 -22.09752 5142 ft 329 kts 294°
2026-05-07 21:39 63.72505 -22.14536 4966 ft 330 kts 295°
2026-05-07 21:39 63.73385 -22.19358 4957 ft 332 kts 295°
2026-05-07 21:39 63.74261 -22.24181 4948 ft 331 kts 295°
2026-05-07 21:39 63.75132 -22.28967 4968 ft 328 kts 295°
2026-05-07 21:40 63.76002 -22.33743 4974 ft 327 kts 294°
2026-05-07 21:40 63.76844 -22.38276 4977 ft 304 kts 298°
2026-05-07 21:40 63.77998 -22.42000 4974 ft 278 kts 320°
2026-05-07 21:40 63.79594 -22.44043 4977 ft 255 kts 347°
2026-05-07 21:41 63.81281 -22.43966 4980 ft 238 kts 17°
2026-05-07 21:41 63.82609 -22.41960 4957 ft 228 kts 51°
2026-05-07 21:41 63.83078 -22.38639 4968 ft 224 kts 87°
2026-05-07 21:41 63.82695 -22.35296 4959 ft 219 kts 114°
2026-05-07 21:42 63.81711 -22.32744 4985 ft 214 kts 137°
2026-05-07 21:42 63.80731 -22.30318 4989 ft 202 kts 120°
2026-05-07 21:42 63.80005 -22.27786 4991 ft 183 kts 116°
2026-05-07 21:42 63.79398 -22.25319 4969 ft 179 kts 114°
2026-05-07 21:43 63.78829 -22.22797 4965 ft 181 kts 116°
2026-05-07 21:43 63.78029 -22.20620 4964 ft 187 kts 139°
2026-05-07 21:43 63.76820 -22.19568 4960 ft 191 kts 175°
2026-05-07 21:43 63.75543 -22.20267 4956 ft 191 kts 213°
2026-05-07 21:44 63.74676 -22.22499 4963 ft 186 kts 249°
2026-05-07 21:44 63.74513 -22.25244 4972 ft 175 kts 285°
2026-05-07 21:44 63.74861 -22.27851 4970 ft 169 kts 298°
2026-05-07 21:44 63.75310 -22.30290 4950 ft 168 kts 300°
2026-05-07 21:45 63.75765 -22.32728 4954 ft 169 kts 297°
2026-05-07 21:45 63.76223 -22.35201 4958 ft 171 kts 297°
2026-05-07 21:45 63.76680 -22.37653 4977 ft 171 kts 300°
2026-05-07 21:45 63.77347 -22.39804 4960 ft 164 kts 323°
2026-05-07 21:46 63.78330 -22.40981 4979 ft 160 kts 348°
2026-05-07 21:46 63.79057 -22.41093 4851 ft 156 kts
2026-05-07 21:46 63.80306 -22.39744 4480 ft 149 kts 38°
2026-05-07 21:46 63.80719 -22.38501 4258 ft 151 kts 55°
2026-05-07 21:47 63.80983 -22.36146 3825 ft 162 kts 82°
2026-05-07 21:47 63.80744 -22.33602 3469 ft 168 kts 103°
2026-05-07 21:47 63.80301 -22.31169 3373 ft 168 kts 104°
2026-05-07 21:47 63.79838 -22.28730 3385 ft 168 kts 107°
2026-05-07 21:48 63.79388 -22.26311 3372 ft 166 kts 107°
2026-05-07 21:48 63.78943 -22.23909 3371 ft 165 kts 104°
2026-05-07 21:48 63.78401 -22.21603 3369 ft 169 kts 121°
2026-05-07 21:48 63.77466 -22.19945 3361 ft 175 kts 154°
2026-05-07 21:49 63.76253 -22.19663 3360 ft 180 kts 190°
2026-05-07 21:49 63.75147 -22.20961 3366 ft 181 kts 228°
2026-05-07 21:49 63.74550 -22.23328 3373 ft 173 kts 261°
2026-05-07 21:49 63.74569 -22.25911 3366 ft 159 kts 293°
2026-05-07 21:50 63.74931 -22.28232 3368 ft 155 kts 300°
2026-05-07 21:50 63.75341 -22.30436 3118 ft 149 kts 302°
2026-05-07 21:50 63.75735 -22.32548 2734 ft 144 kts 302°
2026-05-07 21:50 63.76122 -22.34632 2306 ft 143 kts 302°
2026-05-07 21:51 63.76507 -22.36729 1832 ft 146 kts 301°
2026-05-07 21:51 63.76949 -22.38796 1592 ft 146 kts 311°
2026-05-07 21:51 63.77631 -22.40469 1574 ft 144 kts 326°
2026-05-07 21:51 63.78498 -22.41395 1579 ft 138 kts 353°
2026-05-07 21:52 63.79429 -22.40935 1574 ft 141 kts 31°
2026-05-07 21:52 63.79952 -22.39076 1573 ft 152 kts 73°
2026-05-07 21:52 63.79663 -22.36695 1570 ft 171 kts 124°
2026-05-07 21:52 63.78583 -22.35535 1574 ft 181 kts 178°
2026-05-07 21:53 63.77446 -22.36584 1595 ft 179 kts 226°
2026-05-07 21:53 63.76739 -22.38791 1579 ft 170 kts 252°
2026-05-07 21:53 63.76464 -22.41321 1571 ft 162 kts 275°
2026-05-07 21:53 63.76804 -22.43503 1570 ft 144 kts 319°
2026-05-07 21:54 63.77423 -22.45320 1592 ft 148 kts 310°
2026-05-07 21:54 63.77954 -22.47343 1573 ft 151 kts 307°
2026-05-07 21:54 63.78427 -22.49460 1592 ft 151 kts 304°
2026-05-07 21:54 63.78856 -22.51636 1583 ft 152 kts 301°
2026-05-07 21:55 63.79261 -22.53850 1601 ft 153 kts 299°
2026-05-07 21:55 63.79654 -22.56097 1595 ft 153 kts 300°
2026-05-07 21:55 63.80152 -22.58161 1587 ft 146 kts 315°
2026-05-07 21:55 63.80875 -22.59656 1585 ft 141 kts 333°
2026-05-07 21:56 63.81781 -22.60379 1594 ft 137 kts 354°
2026-05-07 21:56 63.82739 -22.60452 1585 ft 138 kts
2026-05-07 21:56 63.83699 -22.60505 1585 ft 137 kts 360°
2026-05-07 21:56 63.84654 -22.60515 1573 ft 136 kts
2026-05-07 21:57 63.85602 -22.60522 1582 ft 136 kts
2026-05-07 21:57 63.86553 -22.60533 1595 ft 137 kts
2026-05-07 21:57 63.87504 -22.60540 1595 ft 137 kts
2026-05-07 21:57 63.88445 -22.60542 1598 ft 138 kts
2026-05-07 21:58 63.89400 -22.60542 1597 ft 136 kts
2026-05-07 21:58 63.90349 -22.60541 1472 ft 136 kts
2026-05-07 21:58 63.91295 -22.60541 1272 ft 136 kts
2026-05-07 21:58 63.92243 -22.60541 1065 ft 136 kts
2026-05-07 21:59 63.93188 -22.60544 837 ft 136 kts
2026-05-07 21:59 63.94130 -22.60555 636 ft 135 kts
2026-05-07 21:59 63.95075 -22.60545 408 ft 136 kts
2026-05-07 21:59 63.96028 -22.60537 259 ft 140 kts
2026-05-07 22:00 63.96982 -22.60547 166 ft 126 kts
2026-05-07 22:00 63.97676 -22.60542 177 ft 77 kts
2026-05-07 22:00 63.98124 -22.60540 175 ft 55 kts 360°
2026-05-07 22:00 63.98481 -22.60542 183 ft 49 kts 360°
2026-05-07 22:01 63.98809 -22.60541 180 ft 45 kts 360°
2026-05-07 22:01 63.99106 -22.60541 182 ft 32 kts 358°
2026-05-07 22:01 63.99166 -22.60635 179 ft 8 kts 285°
2026-05-07 22:01 63.99172 -22.60840 171 ft 17 kts 271°
2026-05-07 22:02 63.99173 -22.61165 164 ft 23 kts 270°
2026-05-07 22:02 63.99203 -22.61407 157 ft 9 kts 333°
2026-05-07 22:02 63.99277 -22.61428 153 ft 13 kts 358°
2026-05-07 22:02 63.99313 -22.61487 151 ft 7 kts 296°
2026-05-07 22:03 63.99321 -22.61575 149 ft 0 kts 272°